Watertown Regional Airport
KATY : now visible

Airfield :











YOU CAN JOIN US ON...

 
LOGIN :

Register | Disclaimer

   EN    FR    IT 

 









Legend :    VFR   Marginal VFR   IFR   Intensive IFR   Very Intensive IFR
Visi :
Ceiling :
>= 8 km
>= 3000ft
5 to 8 km
1000 to 3000 ft
1500m to 5 km
500 to 1000 ft
800 to 1500m
200 to 500 ft
< 800m
< 200 ft
Symbols :   Thunderstorms  Fog  Heavy snow  Heavy precipitations  Wind > 20 kt







- Airport Elevation : 1749 ft
- IATA code : ATY


KATY - Watertown Regional

CURRENT METAR :
  • 191353Z AUTO 11006KT 10SM CLR 25/23 A2962 RMK AO2 SLP015 T02500233

EXPIRED METARs :
  • 191253Z AUTO 11005KT 10SM CLR 26/23 A2964 RMK AO2 SLP020 T02560233
  • 191153Z AUTO 12007KT 10SM CLR 24/22 A2965 RMK AO2 SLP024 T02390222 10244 20211 58008

TAF KATY
Valid from the 19 at 12:00 until the 20 at 12:00 UTC


191141Z 1912/2012 10005KT P6SM BKN200
FM191600 12009KT P6SM SCT100 BKN200
FM192000 02010KT P6SM BKN090
KZMP FIR / North America



MET'MAP, your aeronautical weather chart ! - Copyright ORBIFLY December 2007 - Disclaimer

ORBIFLY MET'MAP TEAM :

Programming & Development : Alexandra Zaïnal
Concept & Development : Baudouin d'Aumeries
Co-Development & Prog : Marc-Olivier Méhu
Technical & hardware support : Manuel Goepfert

Contact : metmap@orbifly.com




SOURCES & CREDITS :

   NOAA       Earth
Advisory